sat.trackr.live / text

‹ back to catalog

STARLINK-34659

NORAD 64913 · 2025-157K

PAYLOAD ACTIVE UNKNOWN

§ Identity

Operator
Country
US
Launch date
2025-07-26
Launch site
AFETR
Launch vehicle
Mass (kg)
RCS (m²)

Purposes: comms

External: N2YO · Heavens-Above · Gunter

§ Orbital elements

Epoch: 2026-09-19T23:34:18.451200Z

Period
94.01 min
Inclination
53.1605°
Eccentricity
0.0001311
Mean motion
15.31709688 rev/d
Perigee alt
469.8 km
Apogee alt
471.6 km
Semi-major
6,848.8 km
B*
4.9444e-4
RAAN
161.5859°
Arg perigee
60.4051°
Mean anomaly
299.7081°
Rev number
6,584

§ Raw data

STARLINK-346591 64913U 25157K   26262.98215800  .00015013  00000+0  49444-3 0  99912 64913  53.1605 161.5859 0001311  60.4051 299.7081 15.31709688 65849

JSON: /api/v1/satellites/64913 · /tle

For live sub-satellite position, see the globe view (requires WebGL).

§ Visibility from observer

Set your observer location to see the next 7 days of passes ≥ 10°. The values pass through the URL so the page stays shareable.

No JS? Fill the form by hand. The geolocation button needs JavaScript.